User: anonymous   Login
Location: �terpigny
(49.8910°N, 2.9249°E)
Time: 07:03:00
(UTC+00:00)
Language:

HuskySat-1 - Orbit

View from above orbital plane
View from above orbital plane
View from above satellite
View from above satellite

Ground track
Ground track

The orbit data is extracted from the following two-line orbital elements,

1 45117U 19071G   22178.84877037  .00020612  00000-0  38572-3 0  9999
2 45117  51.6377   3.0566 0008458 208.1580 151.8951 15.48639448135043
Epoch (UTC): 27 June 2022 20:22:13
Eccentricity: 0.0008458
inclination: 51.6377°
perigee height: 415 km
apogee height: 426 km
right ascension of ascending node: 3.0566°
argument of perigee: 208.1580°
revolutions per day: 15.48639448
mean anomaly at epoch: 151.8951°
orbit number at epoch: 13504

The dashed part of the orbit path shows where the satellite is in the earth's shadow,  

DLR